This demonstration page uses our WeatherBlox Daily Observations layout. Learn more.

Left ArrowRight Arrow

38.20091, -84.87328

Hourly Observations for March 18, 2022

Temp ( °F °C ) Dew Point ( °F °C ) Humidity (%) Winds ( mph kmh ) Pressure ( in mb ) Visibility ( mi km ) Precip ( " mm )
12:53 am 00:53 Clear 50 10 N/A N/A Calm 29.94 1014 10 16 0.00 0.00
1:53 am 01:53 Mostly Cloudy 50 10 N/A N/A Calm 29.93 1013 10 16 0.00 0.00
2:53 am 02:53 Mostly Cloudy 48 9 N/A N/A Calm 29.91 1013 10 16 0.00 0.00
3:53 am 03:53 Cloudy 52 11 N/A N/A Calm 29.91 1013 10 16 0.00 0.00
4:53 am 04:53 Mostly Cloudy 52 11 N/A N/A Calm 29.89 1012 10 16 0.00 0.00
5:53 am 05:53 Cloudy 54 12 N/A N/A SSE 3 6 29.91 1013 10 16 0.00 0.00
6:53 am 06:53 Partly Cloudy 54 12.2 48 8.9 80 80 SSE 5 7 29.91 1013 10 16 0.00 0.00
7:53 am 07:53 Sunny 54 12.2 48 8.9 80 80 SSE 7 11 29.89 1012 10 16 0.00 0.00
8:53 am 08:53 Sunny 56 13.3 48 8.9 75 75 SSE 9 15 29.89 1012 10 16 0.00 0.00
9:53 am 09:53 Partly Cloudy 58 14.4 49 9.4 72 72 SSE 10 17 29.89 1012 10 16 0.00 0.00
10:53 am 10:53 Sunny 60 15.6 49 9.4 67 67 SSE 10 17 29.88 1012 10 16 0.00 0.00
11:53 am 11:53 Partly Cloudy 62 16.7 50 10 65 65 SSE 12 19 29.85 1011 10 16 0.00 0.00
12:53 pm 12:53 Cloudy 63 17.2 50 10 63 63 SE 12 19 29.80 1009 10 16 0.00 0.00
1:53 pm 13:53 Cloudy 64 17.8 50 10 60 60 SSE 13 20 29.76 1008 10 16 0.00 0.00
2:53 pm 14:53 Cloudy 64 17.8 50 10 60 60 SSE 10 17 29.72 1006 10 16 0.00 0.00
3:53 pm 15:53 Cloudy 65 18.3 51 10.6 61 61 SSE 14 22 29.69 1005 10 16 0.00 0.00
4:53 pm 16:53 Cloudy 67 19.4 50 10 55 55 S 15 24 29.67 1005 10 16 0.00 0.00
5:53 pm 17:53 Cloudy 66 18.9 50 10 56 56 S 8 13 29.65 1004 10 16 0.00 0.00
6:53 pm 18:53 Cloudy 66 18.9 50 10 56 56 S 8 13 29.67 1005 10 16 0.00 0.00
7:53 pm 19:53 Mostly Cloudy 65 18.3 51 10.6 61 61 S 8 13 29.67 1005 10 16 0.00 0.00
8:53 pm 20:53 Cloudy 64 17.8 51 10.6 63 63 S 6 9 29.66 1005 10 16 0.00 0.00
9:53 pm 21:53 Mostly Clear 62 16.7 51 10.6 67 67 S 8 13 29.66 1004 10 16 0.00 0.00
10:53 pm 22:53 Mostly Clear 61 16.1 52 11.1 72 72 SSE 9 15 29.66 1004 10 16 0.00 0.00
11:53 pm 23:53 Cloudy 61 16.1 53 11.7 75 75 S 8 13 29.65 1004 10 16 0.00 0.00

Powered by AerisWeather